Wallops Island, VA

2:56 AM EDT on May 26, 2017 (GMT -0400)
Wallops Flight Facility

Weather History for KWAL - January, 2014

Change the Weather History Date:

Thursday, January 2, 2014

  Actual Average Record
Temperature  
Mean Temperature 41 °F 37 °F  
Max Temperature 47 °F 46 °F 72 °F (1985)
Min Temperature 35 °F 29 °F 18 °F (1969)
Degree Days  
Heating Degree Days 24    
Month to date heating degree days 51  
Since 1 July heating degree days 1334  
Cooling Degree Days 0    
Month to date cooling degree days 0  
Year to date cooling degree days 0  
Moisture  
Dew Point 37 °F    
Average Humidity 77    
Maximum Humidity 92    
Minimum Humidity 62    
Precipitation  
Precipitation 0.38 in 0.10 in 0.96 in (2006)
Month to date precipitation 0.38 0.19  
Year to date precipitation 0.38 0.19  
Sea Level Pressure  
Sea Level Pressure 29.80 in    
Wind  
Wind Speed 4 mph (NE)    
Max Wind Speed 17 mph    
Max Gust Speed 21 mph    
Visibility 8 miles    
Events Rain    
T = Trace of Precipitation, MM = Missing Value Source: NWS Daily Summary

Daily Weather History Graph

Daily Weather History Graph

Search for Another Location

Airport or City:

Trip Planner

Search our weather history database for the weather conditions in past years. The results will help you decide how hot, cold, wet, or windy it might be!

Date:

Astronomy

Jan. 02, 2014 Rise Set
Actual Time 7:17 AM EST 4:54 PM EST
Civil Twilight 6:48 AM EST 5:23 PM EST
Nautical Twilight 6:15 AM EST 5:56 PM EST
Astronomical Twilight 5:43 AM EST 6:28 PM EST
Moon 7:59 AM EST (1/2) 6:46 PM EST (1/2)
Length of Visible Light 10h 34m
Length of Day
9h 36m
New Moon, 2% of the Moon is Illuminated
Jan 2
New Moon
Jan 7
First Quarter
Jan 15
Full
Jan 24
Last Quarter
Jan 30
New

Hourly Weather History & Observations

Time (EST) Temp. Windchill Dew Point Humidity Pressure Visibility Wind Dir Wind Speed Gust Speed Precip Events Conditions
12:54 AM 37.9 °F 34.4 °F 35.1 °F 89% 30.14 in 10.0 mi NW 4.6 mph - N/A   Overcast
1:54 AM 39.0 °F 36.8 °F 35.1 °F 86% 30.12 in 10.0 mi WNW 3.5 mph - N/A   Overcast
2:54 AM 37.9 °F 35.5 °F 35.1 °F 89% 30.11 in 10.0 mi NW 3.5 mph - N/A   Overcast
3:54 AM 37.0 °F - 34.0 °F 89% 30.06 in 10.0 mi Calm Calm - N/A   Partly Cloudy
4:54 AM 37.9 °F - 34.0 °F 86% 30.04 in 10.0 mi Calm Calm - N/A   Mostly Cloudy
5:54 AM 37.0 °F - 34.0 °F 89% 30.02 in 10.0 mi Calm Calm - N/A   Clear
6:54 AM 37.0 °F - 33.1 °F 86% 30.02 in 10.0 mi Calm Calm - N/A   Clear
7:54 AM 37.0 °F - 33.1 °F 86% 29.99 in 10.0 mi Calm Calm - N/A   Clear
8:54 AM 39.0 °F - 36.0 °F 89% 29.99 in 10.0 mi Calm Calm - N/A   Clear
9:54 AM 41.0 °F - 37.9 °F 89% 29.96 in 10.0 mi Calm Calm - N/A   Overcast
10:54 AM 45.0 °F - 37.9 °F 76% 29.92 in 10.0 mi Calm Calm - N/A   Clear
11:54 AM 46.9 °F - 39.0 °F 74% 29.86 in 10.0 mi Calm Calm - N/A   Clear
12:54 PM 45.0 °F 42.6 °F 32.0 °F 60% 29.81 in 10.0 mi ESE 4.6 mph - N/A   Clear
1:54 PM 45.0 °F 43.5 °F 37.0 °F 74% 29.77 in 10.0 mi ESE 3.5 mph - N/A   Scattered Clouds
2:54 PM 46.0 °F 43.9 °F 36.0 °F 68% 29.75 in 10.0 mi ESE 4.6 mph - N/A   Overcast
3:54 PM 46.9 °F - 37.0 °F 68% 29.74 in 10.0 mi NE 3.5 mph - N/A   Overcast
4:54 PM 45.0 °F 40.1 °F 37.0 °F 74% 29.70 in 10.0 mi NE 9.2 mph - N/A   Overcast
5:54 PM 43.0 °F 36.4 °F 39.0 °F 86% 29.68 in 9.0 mi ENE 12.7 mph - 0.00 in Rain Light Rain
6:22 PM 42.1 °F 34.2 °F 39.0 °F 89% 29.67 in 9.0 mi East 16.1 mph - 0.01 in Rain Light Rain
6:38 PM 42.1 °F 35.7 °F 39.0 °F 89% 29.66 in 7.0 mi East 11.5 mph - 0.01 in Rain Light Rain
6:54 PM 42.1 °F 35.7 °F 39.0 °F 89% 29.65 in 8.0 mi East 11.5 mph - 0.01 in Rain Light Rain
7:46 PM 42.1 °F 36.6 °F 39.0 °F 89% 29.62 in 4.0 mi ENE 9.2 mph - 0.03 in Rain Rain
7:54 PM 42.1 °F 36.1 °F 39.0 °F 89% 29.61 in 4.0 mi ENE 10.4 mph - 0.04 in Rain Light Rain
8:20 PM 42.1 °F 37.1 °F 39.0 °F 89% 29.60 in 4.0 mi ENE 8.1 mph - 0.05 in Rain Rain
8:33 PM 42.1 °F 36.1 °F 39.0 °F 89% 29.58 in 4.0 mi East 10.4 mph - 0.08 in Rain Light Rain
8:43 PM 42.1 °F 36.6 °F 39.0 °F 89% 29.59 in 5.0 mi ENE 9.2 mph - 0.09 in Rain Light Rain
8:54 PM 42.1 °F 38.4 °F 39.0 °F 89% 29.59 in 6.0 mi NE 5.8 mph - 0.09 in Rain Light Rain
9:02 PM 42.1 °F 37.7 °F 39.0 °F 89% 29.59 in 5.0 mi North 6.9 mph - 0.01 in Rain Light Rain
9:54 PM 39.9 °F 34.5 °F 37.9 °F 93% 29.57 in 4.0 mi North 8.1 mph - 0.07 in Rain Light Rain
10:54 PM 39.9 °F 33.9 °F 37.0 °F 89% 29.53 in 5.0 mi North 9.2 mph - 0.09 in Rain Light Rain
11:54 PM 37.9 °F 32.1 °F 36.0 °F 93% 29.52 in 6.0 mi North 8.1 mph - 0.07 in Rain Light Rain